When you browse on this site, cookies collect data to enhance your experience and personalize the content and advertising you see.
Visit our Privacy Policy to learn more. By continuing to use the site, you agree to this use of cookies and data.

Hourly Weather Natanja

Today, 25 September, Friday

Time Temperature Precipitation Wind Pressure Humidity
00:00 +25°C° 0 mm 1 mps 754 mmHg 75%
01:00 +25°C° 0 mm 1 mps 753 mmHg 75%
02:00 +25°C° 0 mm 2 mps 753 mmHg 76%
03:00 +24°C° 0 mm 2 mps 753 mmHg 77%
04:00 +24°C° 0 mm 2 mps 753 mmHg 77%
05:00 +24°C° 0 mm 2 mps 753 mmHg 77%
06:00 +25°C° 0 mm 3 mps 753 mmHg 73%
07:00 +27°C° 0 mm 3 mps 753 mmHg 69%
08:00 +28°C° 0 mm 3 mps 753 mmHg 65%
09:00 +29°C° 0 mm 4 mps 753 mmHg 62%
10:00 +30°C° 0 mm 4 mps 753 mmHg 58%
11:00 +32°C° 0 mm 4 mps 753 mmHg 54%
12:00 +32°C° 0 mm 4 mps 753 mmHg 54%
13:00 +32°C° 0 mm 4 mps 752 mmHg 54%
14:00 +32°C° 0 mm 5 mps 752 mmHg 53%
15:00 +30°C° 0 mm 4 mps 752 mmHg 57%
16:00 +30°C° 0 mm 4 mps 752 mmHg 60%
17:00 +29°C° 0 mm 4 mps 752 mmHg 64%
18:00 +28°C° 0 mm 3 mps 752 mmHg 68%
19:00 +27°C° 0 mm 2 mps 752 mmHg 73%
20:00 +26°C° 0 mm 1 mps 752 mmHg 77%
21:00 +26°C° 0 mm 1 mps 752 mmHg 77%
22:00 +26°C° 0 mm 1 mps 752 mmHg 78%
23:00 +26°C° 0 mm 2 mps 752 mmHg 78%

Tomorrow, 26 September, Saturday

Time Temperature Precipitation Wind Pressure Humidity
00:00 +26°C° 0 mm 2 mps 752 mmHg 77%
01:00 +26°C° 0 mm 2 mps 752 mmHg 76%
02:00 +26°C° 0 mm 2 mps 751 mmHg 74%
03:00 +26°C° 0 mm 2 mps 752 mmHg 75%
04:00 +26°C° 0 mm 1 mps 752 mmHg 75%
05:00 +26°C° 0 mm 1 mps 752 mmHg 75%
06:00 +27°C° 0 mm 1 mps 752 mmHg 70%
07:00 +28°C° 0 mm 1 mps 752 mmHg 65%
08:00 +29°C° 0 mm 1 mps 752 mmHg 60%
09:00 +29°C° 0 mm 1 mps 752 mmHg 56%
10:00 +30°C° 0 mm 2 mps 752 mmHg 51%
11:00 +31°C° 0 mm 3 mps 752 mmHg 47%
12:00 +31°C° 0 mm 3 mps 752 mmHg 48%
13:00 +32°C° 0 mm 4 mps 752 mmHg 49%
14:00 +32°C° 0 mm 5 mps 751 mmHg 50%
15:00 +30°C° 0 mm 5 mps 751 mmHg 53%
16:00 +30°C° 0 mm 5 mps 752 mmHg 56%
17:00 +29°C° 0 mm 5 mps 752 mmHg 59%
18:00 +28°C° 0 mm 4 mps 752 mmHg 63%
19:00 +27°C° 0 mm 4 mps 753 mmHg 68%
20:00 +26°C° 0 mm 3 mps 753 mmHg 73%
21:00 +26°C° 0 mm 3 mps 753 mmHg 74%
22:00 +25°C° 0 mm 3 mps 753 mmHg 74%
23:00 +25°C° 0 mm 3 mps 753 mmHg 75%

Day after tomorrow, 27 September, Sunday

Time Temperature Precipitation Wind Pressure Humidity
00:00 +25°C° 0 mm 3 mps 753 mmHg 76%
01:00 +24°C° 0 mm 3 mps 753 mmHg 77%
02:00 +24°C° 0 mm 3 mps 753 mmHg 78%
03:00 +24°C° 0 mm 3 mps 753 mmHg 78%
04:00 +24°C° 0 mm 2 mps 753 mmHg 78%
05:00 +24°C° 0 mm 2 mps 754 mmHg 79%
06:00 +25°C° 0 mm 2 mps 754 mmHg 73%
07:00 +27°C° 0 mm 2 mps 754 mmHg 66%
08:00 +28°C° 0 mm 2 mps 755 mmHg 60%
09:00 +29°C° 0 mm 2 mps 755 mmHg 55%
10:00 +31°C° 0 mm 3 mps 755 mmHg 49%
11:00 +34°C° 0 mm 3 mps 755 mmHg 43%
12:00 +33°C° 0 mm 5 mps 754 mmHg 46%
13:00 +33°C° 0 mm 6 mps 754 mmHg 49%
14:00 +33°C° 0 mm 8 mps 753 mmHg 52%
15:00 +32°C° 0 mm 8 mps 753 mmHg 57%
16:00 +32°C° 0 mm 8 mps 754 mmHg 62%
17:00 +31°C° 0 mm 8 mps 754 mmHg 67%
18:00 +29°C° 0 mm 7 mps 754 mmHg 70%
19:00 +28°C° 0 mm 6 mps 754 mmHg 74%
20:00 +27°C° 0 mm 5 mps 755 mmHg 78%
21:00 +27°C° 0 mm 5 mps 755 mmHg 78%
22:00 +27°C° 0 mm 4 mps 755 mmHg 78%
23:00 +26°C° 0 mm 4 mps 755 mmHg 79%

28 September, Monday

Time Temperature Precipitation Wind Pressure Humidity
00:00 +26°C° 0 mm 4 mps 755 mmHg 79%
01:00 +26°C° 0 mm 4 mps 755 mmHg 78%
02:00 +26°C° 0 mm 4 mps 755 mmHg 78%
03:00 +26°C° 0 mm 4 mps 755 mmHg 77%
04:00 +26°C° 0 mm 4 mps 755 mmHg 75%
05:00 +26°C° 0 mm 4 mps 755 mmHg 74%
06:00 +28°C° 0 mm 3 mps 755 mmHg 64%
07:00 +30°C° 0 mm 3 mps 756 mmHg 54%
08:00 +33°C° 0 mm 3 mps 756 mmHg 45%
09:00 +35°C° 0 mm 4 mps 756 mmHg 43%
10:00 +36°C° 0 mm 5 mps 755 mmHg 42%
11:00 +38°C° 0 mm 6 mps 755 mmHg 40%
12:00 +38°C° 0 mm 6 mps 755 mmHg 42%
13:00 +38°C° 0 mm 7 mps 754 mmHg 43%
14:00 +37°C° 0 mm 8 mps 754 mmHg 44%
15:00 +35°C° 0 mm 7 mps 754 mmHg 48%
16:00 +34°C° 0 mm 7 mps 754 mmHg 53%
17:00 +33°C° 0 mm 6 mps 753 mmHg 57%
18:00 +30°C° 0 mm 5 mps 754 mmHg 64%
19:00 +29°C° 0 mm 5 mps 754 mmHg 71%
20:00 +27°C° 0 mm 4 mps 754 mmHg 78%
21:00 +27°C° 0 mm 3 mps 754 mmHg 80%
22:00 +27°C° 0 mm 3 mps 754 mmHg 81%
23:00 +26°C° 0 mm 2 mps 754 mmHg 82%

29 September, Tuesday

Time Temperature Precipitation Wind Pressure Humidity
00:00 +26°C° 0 mm 2 mps 754 mmHg 83%
01:00 +26°C° 0 mm 2 mps 754 mmHg 83%
02:00 +26°C° 0 mm 2 mps 754 mmHg 83%
03:00 +26°C° 0 mm 2 mps 753 mmHg 83%
04:00 +26°C° 0 mm 1 mps 753 mmHg 83%
05:00 +25°C° 0 mm 1 mps 753 mmHg 83%
06:00 +27°C° 0 mm 1 mps 754 mmHg 76%
07:00 +28°C° 0 mm 1 mps 754 mmHg 69%
08:00 +30°C° 0 mm 1 mps 754 mmHg 62%
09:00 +32°C° 0 mm 1 mps 753 mmHg 57%
10:00 +34°C° 0 mm 2 mps 753 mmHg 51%
11:00 +36°C° 0 mm 3 mps 753 mmHg 46%
12:00 +35°C° 0 mm 4 mps 752 mmHg 48%
13:00 +35°C° 0 mm 4 mps 752 mmHg 50%
14:00 +35°C° 0 mm 5 mps 751 mmHg 53%
15:00 +34°C° 0 mm 5 mps 751 mmHg 58%
16:00 +33°C° 0 mm 5 mps 751 mmHg 63%
17:00 +32°C° 0 mm 4 mps 751 mmHg 68%
18:00 +30°C° 0 mm 4 mps 751 mmHg 74%
19:00 +28°C° 0 mm 4 mps 751 mmHg 79%
20:00 +27°C° 0 mm 4 mps 751 mmHg 84%
21:00 +27°C° 0 mm 3 mps 751 mmHg 85%
22:00 +27°C° 0 mm 3 mps 751 mmHg 85%
23:00 +27°C° 0 mm 2 mps 751 mmHg 86%

30 September, Wednesday

Time Temperature Precipitation Wind Pressure Humidity
00:00 +26°C° 0 mm 2 mps 751 mmHg 85%
01:00 +26°C° 0 mm 1 mps 750 mmHg 84%
02:00 +26°C° 0 mm 1 mps 750 mmHg 83%
03:00 +26°C° 0 mm 1 mps 750 mmHg 84%
04:00 +26°C° 0 mm 2 mps 750 mmHg 85%
05:00 +26°C° 0 mm 2 mps 750 mmHg 86%
06:00 +27°C° 0 mm 2 mps 750 mmHg 81%
07:00 +28°C° 0 mm 3 mps 750 mmHg 76%
08:00 +29°C° 0 mm 3 mps 751 mmHg 71%
09:00 +31°C° 0 mm 3 mps 751 mmHg 66%
10:00 +33°C° 0 mm 3 mps 750 mmHg 60%
11:00 +34°C° 0 mm 4 mps 750 mmHg 55%
12:00 +34°C° 0 mm 4 mps 750 mmHg 55%
13:00 +34°C° 0 mm 4 mps 749 mmHg 55%
14:00 +34°C° 0 mm 4 mps 749 mmHg 55%
15:00 +33°C° 0 mm 4 mps 749 mmHg 61%
16:00 +32°C° 0 mm 4 mps 749 mmHg 67%
17:00 +29°C° 0 mm 4 mps 749 mmHg 73%
18:00 +28°C° 0 mm 4 mps 749 mmHg 77%
19:00 +27°C° 0 mm 3 mps 750 mmHg 81%
20:00 +26°C° 0 mm 2 mps 750 mmHg 85%
21:00 +26°C° 0 mm 2 mps 750 mmHg 84%
22:00 +26°C° 0 mm 2 mps 750 mmHg 82%
23:00 +26°C° 0 mm 2 mps 750 mmHg 81%
Show more